Showing default

COSMOS 192, 3047

Orbit data source: Space-Track

COSMOS 192, 3047 is a payload satellite owned by OKB-10 (CIS) in LEO that was launched on Thu, 23 Nov 1967 UTC via a KOSMOS 11K65M launch vehicle from the Plesetsk Missile And Space Complex (PKMTR). Payloads include a variety of satellites, spacecraft, and rockets equipped with specific instruments for various scientific and technological missions. These include communications satellites like Starlink; space stations such as the ISS; scientific satellites like the Hubble; Earth observation satellites from companies like Planet Labs, Umbra, and HawkEye 360; GPS; miniature CubeSats for education and research; and military/defense satellites.

Loading next visibility...
COSMOS 192 details
Identifier
3047, 1967-116A
Orbit
LEO
Last TLE update9 hours ago
Origin
Flag of CISOKB-10 (CIS)
ManufacturerOKB-10
MissionDefense Navigation
Bus & MotorKAUR-1 11F617, Unknown motor
Mass775 kg wet, 775 kg dry
Launch date (UTC)
1967-11-23 (57 years ago)
Launch vehicle
KOSMOS 11K65M
Launch site
Plesetsk Missile And Space Complex (PKMTR)
Object type
Payload
Rocket body
Debris
Shape & HBRCyl + 1 Rod, 17 m
Radar Cross Section9.978 m², Large (>1 m²)

Expand to show TLE details & history

TLE from 9 hours ago
0 COSMOS 192
1 03047U 67116A   24356.90395926  .00000891  00000-0  20460-3 0  9991
2 03047  74.0125 327.5096 0009746 268.7555  91.2492 14.56991622 19632
Epoch: 2024-12-21T21:41Z
Definitive object data (Epoch: 2024-12-21T21:41:42.08Z)
Latitude-0.00003°
Longitude-88.86417°
Altitude705.697 km
Speed7.503 km/s
True Right ascension21h 50m 02s
True Declination0° 00' 00"
Sunlit
Object was in daylight at TLE epoch
Visualization TLE readout
Latitude49.69042°
Longitude70.80881°
Altitude715.757 km
Speed7.5 km/s
Apparent Right ascension13h 20m 39s
Apparent Declination20° 33' 40"
Sunlit
Object is in full shadow
Visualization observer readout
Local Sidereal Time05:35:54
Azimuth57.538° ENE
Elevation-5.252°
Doppler factor1
Orbital elements
Apogee altitude707.406 km
Perigee altitude693.608 km
Semi-major axis7,078.644 km
Eccentricity0.0009746
Inclination74.0125°
RAAN327.5096°
Arg. of periapsis268.7555°
True anomaly91.36085°
Mean anomaly91.2492°
Eccentric anomaly91.30503°
Mean motion3.64433 °/min
BSTAR0.0002046
Orbital period98.78 mins
Loading maneuver chart data...
Loading historical data...
Loading historical data...
Loading historical data...
Loading historical data...
Loading historical data...
Loading historical data...
Loading historical data...

COSMOS 192 Visibility forecast

Observer location: undefined°, undefined

Span
Click to sort rows by Start time (UTC) header in descending order
Start Az.
Max El. time (UTC)
Max El. Az.
Max El.
End time (UTC)
End Az.
8 mins2024-12-22 09:48:08.668Z337.438° NNW2024-12-22 09:52:08.668Z213.752° SW44.072°2024-12-22 09:56:08.668Z167.702° S
6 mins2024-12-22 22:33:08.668Z140.997° SSE2024-12-22 22:35:08.668Z108.861° ESE23.348°2024-12-22 22:39:08.668Z47.621° ENE
7 mins2024-12-23 00:13:08.668Z243.035° WSW2024-12-23 00:16:08.668Z297.237° NW28.171°2024-12-23 00:20:08.668Z357.812° N
|